Asau Airport


Codes: NSAU/AAU
Name: Asau Airport
City: Asau
Country: Samoa
Elevation: 0 ft.
Wikipedia:

Photos at Asau Airport


   Photos courtesy of SpottingLog. You can add your own sightings and photos by signing up for a free trial today.



No photos found.

Weather at Asau Airport


Time (UTC)DescriptionTempratureWindCloud coverageVisibilityPressureHumidity
16-Jun-2024 09:00Light Rain29°C22 mph, E52%10000m1015hPa83%
16-Jun-2024 12:00Light Rain29°C20 mph, E53%10000m1015hPa82%
16-Jun-2024 15:00Light Rain29°C20 mph, E35%10000m1014hPa80%
16-Jun-2024 18:00Light Rain29°C18 mph, E44%10000m1014hPa78%
16-Jun-2024 21:00Light Rain29°C18 mph, E27%10000m1015hPa74%
17-Jun-2024 00:00Scattered Clouds29°C18 mph, E41%10000m1013hPa74%
17-Jun-2024 03:00Light Rain29°C18 mph, E82%8294m1012hPa81%
17-Jun-2024 06:00Light Rain29°C20 mph, E51%8150m1013hPa82%
17-Jun-2024 09:00Light Rain29°C20 mph, E40%9958m1014hPa81%
17-Jun-2024 12:00Light Rain28°C20 mph, E39%10000m1014hPa81%
17-Jun-2024 15:00Light Rain29°C22 mph, E100%10000m1013hPa79%
17-Jun-2024 18:00Overcast Clouds28°C25 mph, E86%10000m1014hPa76%
17-Jun-2024 21:00Few Clouds29°C25 mph, E12%10000m1015hPa77%
18-Jun-2024 00:00Few Clouds28°C25 mph, E15%10000m1013hPa79%
18-Jun-2024 03:00Light Rain29°C20 mph, E34%10000m1011hPa78%
18-Jun-2024 06:00Light Rain29°C20 mph, E24%10000m1013hPa78%
18-Jun-2024 09:00Light Rain29°C20 mph, E10%10000m1013hPa79%
18-Jun-2024 12:00Light Rain28°C22 mph, E15%10000m1013hPa81%
18-Jun-2024 15:00Light Rain28°C22 mph, E17%10000m1011hPa81%
18-Jun-2024 18:00Light Rain29°C22 mph, E25%10000m1012hPa79%
18-Jun-2024 21:00Light Rain29°C22 mph, E11%10000m1013hPa80%
19-Jun-2024 00:00Light Rain29°C20 mph, E22%10000m1012hPa80%
19-Jun-2024 03:00Light Rain29°C20 mph, E58%10000m1010hPa78%
19-Jun-2024 06:00Scattered Clouds28°C22 mph, E31%10000m1011hPa79%
19-Jun-2024 09:00Scattered Clouds28°C20 mph, E30%10000m1012hPa81%
19-Jun-2024 12:00Light Rain28°C18 mph, E24%10000m1011hPa82%
19-Jun-2024 15:00Light Rain28°C18 mph, E22%10000m1010hPa80%
19-Jun-2024 18:00Light Rain28°C16 mph, E19%10000m1011hPa80%
19-Jun-2024 21:00Light Rain29°C13 mph, NE64%10000m1013hPa80%
20-Jun-2024 00:00Light Rain29°C11 mph, E64%10000m1011hPa78%
20-Jun-2024 03:00Light Rain29°C11 mph, E96%10000m1010hPa79%
20-Jun-2024 06:00Broken Clouds29°C13 mph, E80%10000m1011hPa80%
20-Jun-2024 09:00Light Rain29°C11 mph, E16%10000m1012hPa80%
20-Jun-2024 12:00Light Rain29°C9 mph, E15%10000m1012hPa79%
20-Jun-2024 15:00Light Rain29°C4 mph, S18%10000m1010hPa75%
20-Jun-2024 18:00Light Rain29°C7 mph, E12%10000m1011hPa77%
20-Jun-2024 21:00Light Rain29°C7 mph, SE63%10000m1013hPa77%
21-Jun-2024 00:00Light Rain28°C7 mph, SE50%10000m1011hPa78%
21-Jun-2024 03:00Light Rain28°C11 mph, SE57%10000m1009hPa79%
21-Jun-2024 06:00Light Rain28°C16 mph, SE74%10000m1011hPa80%